{"data":{"norad_id":62917,"epoch":"2026-09-21T15:50:22.564032Z","epoch_age_seconds":68045,"freshness":"FRESH","line1":"1 62917U 25027L   26264.65998338  .00157214  00000+0  12040-2 0  9990","line2":"2 62917  42.9983 246.3771 0000663  49.1169 310.9756 15.70873505 93977","mean_motion":15.70873505,"eccentricity":6.63e-5,"inclination_deg":42.9983,"raan_deg":246.3771,"arg_perigee_deg":49.1169,"mean_anomaly_deg":310.9756,"bstar":0.001204,"rev_number":9397,"period_min":91.668743244861,"perigee_km":355.95279995344,"apogee_km":356.84579946678,"semimajor_km":6734.5362997101,"source":"CELESTRAK","updated_at":"2026-09-22T09:00:49.708497Z"}}